Weather History for Gwinn, MI

Change the Weather History Date:

Monday, January 21, 2013

  Actual Average (KESC) Record (KESC)
Temperature  
Mean Temperature -6 °F -  
Max Temperature 0 °F 27 °F 41 °F (1967)
Min Temperature -14 °F 9 °F -22 °F (1984)
Degree Days  
Heating Degree Days 72    
Moisture  
Dew Point -14 °F    
Average Humidity 70    
Maximum Humidity 78    
Minimum Humidity 50    
Precipitation  
Precipitation 0.00 in - - ()
Sea Level Pressure  
Sea Level Pressure 29.97 in    
Wind  
Wind Speed 9 mph (WNW)    
Max Wind Speed 21 mph    
Max Gust Speed 29 mph    
Visibility 9 miles    
Events Snow    
Averages and records for this station are not official NWS values.
T = Trace of Precipitation, MM = Missing Value Source: NWS Daily Summary

Daily Weather History Graph

Daily Weather History Graph

Search for Another Location

Airport:

Trip Planner

Search our weather history database for the weather conditions in past years. The results will help you decide how hot, cold, wet, or windy it might be!

Date:

Astronomy

Jan. 21, 2013 Rise Set
Actual Time 8:24 AM EST 5:38 PM EST
Civil Twilight 7:50 AM EST 6:11 PM EST
Nautical Twilight 7:14 AM EST 6:48 PM EST
Astronomical Twilight 6:38 AM EST 7:24 PM EST
Moon 1:16 PM EST 3:52 AM EST
Length of Visible Light 10h 20m
Length of Day
9h 14m
Waxing Gibbous, 75% of the Moon is Illuminated
Jan 21
Waxing Gibbous
Jan 26
Full
Feb 3
Last Quarter
Feb 10
New
Feb 17
First Quarter

Hourly Weather History & Observations

Time (EST) Temp. Windchill Dew Point Humidity Pressure Visibility Wind Dir Wind Speed Gust Speed Precip Events Conditions
12:17 AM -4.0 °F -14.6 °F -10.3 °F 74% 29.99 in 10.0 mi West 4.6 mph - N/A   Clear
12:37 AM -4.2 °F -18.0 °F -10.3 °F 75% 29.98 in 10.0 mi West 6.9 mph - N/A   Clear
12:56 AM -4.0 °F -17.8 °F -10.3 °F 74% 29.97 in 10.0 mi West 6.9 mph - N/A   Clear
1:17 AM -3.1 °F -20.1 °F -9.8 °F 73% 29.97 in 10.0 mi West 10.4 mph - N/A   Mostly Cloudy
1:37 AM -3.1 °F -21.8 °F -9.6 °F 74% 29.96 in 10.0 mi West 12.7 mph - N/A   Mostly Cloudy
2:17 AM -2.7 °F -21.4 °F -9.4 °F 73% 29.95 in 10.0 mi WNW 12.7 mph - N/A   Overcast
2:37 AM -3.1 °F -21.0 °F -9.4 °F 74% 29.95 in 10.0 mi WNW 11.5 mph 17.3 mph N/A   Overcast
2:57 AM -3.5 °F -21.4 °F -9.6 °F 75% 29.95 in 10.0 mi WNW 11.5 mph - N/A   Scattered Clouds
3:17 AM -3.6 °F -19.7 °F -9.8 °F 75% 29.95 in 10.0 mi WNW 9.2 mph - N/A   Clear
3:36 AM -4.0 °F -17.8 °F -10.1 °F 75% 29.95 in 10.0 mi WNW 6.9 mph - N/A   Clear
3:57 AM -4.4 °F -18.2 °F -10.3 °F 76% 29.94 in 10.0 mi WNW 6.9 mph - N/A   Scattered Clouds
4:57 AM -5.4 °F -18.0 °F -11.2 °F 76% 29.92 in 10.0 mi West 5.8 mph - N/A   Scattered Clouds
5:16 AM -5.8 °F -21.2 °F -11.2 °F 77% 29.92 in 10.0 mi West 8.1 mph - N/A   Scattered Clouds
5:37 AM -6.0 °F -20.1 °F -11.2 °F 78% 29.92 in 10.0 mi WNW 6.9 mph - N/A   Scattered Clouds
5:57 AM -6.3 °F -20.6 °F -11.6 °F 78% 29.91 in 10.0 mi WNW 6.9 mph - N/A   Clear
7:55 AM -7.6 °F -24.6 °F -13.0 °F 77% 29.90 in 10.0 mi West 9.2 mph - N/A   Clear
9:55 AM -4.0 °F -24.5 °F -11.2 °F 71% 29.92 in 10.0 mi WNW 15.0 mph 23.0 mph N/A   Scattered Clouds
10:50 AM -2.2 °F -24.1 °F -11.2 °F 66% 29.92 in 10.0 mi WNW 18.4 mph 25.3 mph N/A   Mostly Cloudy
11:55 AM -0.4 °F -22.8 °F -13.0 °F 55% 29.92 in 10.0 mi NW 20.7 mph 26.5 mph N/A   Scattered Clouds
12:50 PM -0.4 °F -21.7 °F -14.8 °F 51% 29.91 in 10.0 mi NW 18.4 mph 28.8 mph N/A   Scattered Clouds
1:50 PM -2.2 °F -23.5 °F -16.6 °F 50% 29.92 in 7.0 mi WNW 17.3 mph 28.8 mph N/A   Mostly Cloudy
3:50 PM -4.0 °F -26.4 °F -18.4 °F 50% 29.95 in 10.0 mi NW 18.4 mph 27.6 mph N/A   Overcast
4:50 PM -5.8 °F -26.0 °F -18.4 °F 55% 29.97 in 8.0 mi NW 13.8 mph 25.3 mph N/A   Haze
5:50 PM -7.6 °F -26.6 °F -16.6 °F 65% 29.99 in 5.0 mi WNW 11.5 mph 18.4 mph N/A Snow Light Snow
6:50 PM -9.4 °F -24.3 °F -18.4 °F 65% 30.01 in 10.0 mi WNW 6.9 mph - N/A   Mostly Cloudy
7:55 PM -9.4 °F -25.6 °F -18.4 °F 65% 30.02 in 10.0 mi WNW 8.1 mph - N/A Snow Light Snow
8:50 PM -11.2 °F -24.8 °F -18.4 °F 70% 30.02 in 10.0 mi WNW 5.8 mph - N/A   Overcast
9:50 PM -11.2 °F -29.0 °F -18.4 °F 70% 30.03 in 7.0 mi West 9.2 mph - N/A   Overcast
10:17 PM -12.1 °F -31.3 °F -18.6 °F 73% 30.03 in 7.0 mi West 10.4 mph - N/A   Overcast
10:37 PM -12.5 °F -31.7 °F -19.1 °F 72% 30.03 in 7.0 mi West 10.4 mph - N/A   Overcast
10:56 PM -12.6 °F -30.8 °F -19.3 °F 72% 30.03 in 10.0 mi WSW 9.2 mph - N/A   Mostly Cloudy
11:17 PM -13.2 °F -30.2 °F -19.3 °F 74% 30.04 in 10.0 mi West 8.1 mph - N/A   Scattered Clouds
11:37 PM -13.5 °F -29.3 °F -19.3 °F 75% 30.04 in 10.0 mi West 6.9 mph - N/A   Scattered Clouds
11:56 PM -14.3 °F -28.5 °F -20.2 °F 75% 30.04 in 10.0 mi WSW 5.8 mph - N/A   Scattered Clouds